星链-2520 (STARLINK-2520 )

导读 | 星芒AI

STARLINK-2520 是 SpaceX Starlink 项目中的第2520颗卫星,属于其第二代“星链”星座的一部分。该卫星旨在提供全球高速互联网服务,支持低延迟、高带宽的通信需求。它运行在近地轨道,配备先进推进系统和激光通信技术,以提升网络效率和卫星间连接能力。STARLINK-2520 的发射和部署有助于扩大 Starlink 在全球范围内的覆盖,特别是在偏远和网络基础设施薄弱的地区,为用户提供更稳定和快速的互联网接入服务。

基本信息
目录编号:
48281
目录名称:
STARLINK-2520
国际标识:
2021-036F
轨道中心:
EARTH
卫星名称:
星链-2520
卫星全名:
星链-2520 (STARLINK-2520 )
卫星状态:
已陨落 最后检测时间 2025-01-19
发射日期:
2021-04-29 UTC
国别 :
美国 (US)
星等 :
--
轨道信息
数据来源 国际轨道数据
星历时间: 2025-01-19T10:01:47+0800
轨道信息已过期284天
半长轴: 6559.42km
偏心率: 0.0008118
轨道倾角: 53.036°
近地点辐角 355.030°
升交点赤经 112.894°
平近点角 144.498°
近地点: 175.96km
远地点: 186.61km
周期: 88.117分钟
每日圈数: 16.341981
详细信息
固有亮度:
5
最大亮度:
2.5
卫星平台:
Starlink V1.0
覆盖范围:
全球
运营商:
太空探索技术公司
运营商所在国:
美国
制造商(研发单位):
太空探索技术公司
制造商所在国:
美国
使用方式:
暂无
卫星简介
星链(Starlink)计划是由太空探索技术公司(SpaceX)提出的一个巨型低轨卫星互联网星座项目,计划在2019年至2024年间在太空搭建由约1.2万颗卫星组成的“星链”网络,其中1584颗将部署在地球上空550千米处的近地轨道,并从2020年开始工作。该卫星仍在工作。